Location: ?
(35.4554°N, 139.3092°E)
Time: 22:19:12
(UTC+00:00)

PAYLOAD A - Pass Details

Date: 21 April 2021
Orbit: 691 x 832 km, 98.4° (Epoch: 10 May)

Event Time Altitude Azimuth Distance (km) Brightness Sun altitude
Rises 18:21:48 0° 13° (NNE) 3,241 7.9 -19.5°
Reaches altitude 10° 18:24:09 10° 13° (NNE) 2,290 7.1 -19.1°
Maximum altitude 18:29:11 87° 102° (ESE) 741 3.9 -18.2°
Enters shadow 18:32:44 19° 192° (SSW) 1,689 5.4 -17.6°
